Flag for U.S.A. Weather past 2 weeks in Tempe, Arizona, U.S.A.

Now
80 °F

Scattered clouds.


Feels Like: 82 °F
Forecast: 78 / 95 °F
Wind: 6 mph from Southeast

Location: Phoenix Sky Harbor International Airport

Current Time: Sep 21, 2014 at 7:09:22 AM

Latest Report: Sep 21, 2014 at 6:51 AM


Visibility: 10 mi

Pressure: 29.86 "Hg

Humidity: 60%

Dew point: 65 °F

Location of TempeLocation

Historic Weather in Tempe — Graph

°F

Tempe temperature yesterday

Maximum temperature yesterday: 97 °F (at 1:51 PM)
Minimum temperature yesterday: 82 °F (at 5:51 AM)
Average temperature yesterday: 90 °F

Past Weeks' High & Low Weather Summary

 TemperatureHumidityPressure
High104 °F (Sep 12, 2:51 PM)97% (Sep 8, 6:57 AM)29.92 "Hg (Sep 8, 6:57 AM)
Low71 °F (Sep 8, 3:01 AM)19% (Sep 12, 4:51 PM)29.63 "Hg (Sep 18, 4:51 PM)
Average89 °F46%29.76 "Hg
* Reported Sep 6 5:51 AM — Sep 21 5:51 AM, Tempe, Weather by CustomWeather, © 2014

Note: Actual official high and low records may vary slightly from our data, if they occured in-between our weather recording intervals... More about our weather records

Advertising

Tempe weather history for previous 24 hours

 ConditionsComfort  
Time TempWeatherWind HumidityBarometerVisibility
5:51 AM
Sep 21
80 °FPassing clouds.7 mph62%29.84 "Hg10 mi
4:51 AM81 °FPassing clouds.5 mph67%29.82 "Hg10 mi
3:51 AM82 °FPassing clouds.3 mph60%29.81 "Hg10 mi
2:51 AM83 °FPassing clouds.6 mph59%29.81 "Hg10 mi
1:51 AM85 °FPassing clouds.7 mph55%29.80 "Hg10 mi
12:51 AM86 °FPassing clouds.6 mph53%29.79 "Hg10 mi
11:51 PM
Sep 20
88 °FPassing clouds.3 mph45%29.79 "Hg10 mi
10:51 PM87 °FPassing clouds.8 mph50%29.79 "Hg10 mi
9:51 PM89 °FPassing clouds.7 mph43%29.78 "Hg10 mi
8:51 PM90 °FPassing clouds.5 mph43%29.76 "Hg10 mi
7:51 PM91 °FPassing clouds.9 mph42%29.75 "Hg10 mi
6:51 PM93 °FPartly cloudy.No wind38%29.73 "Hg10 mi
5:51 PM93 °FBroken clouds.5 mph40%29.72 "Hg10 mi
4:51 PM93 °FBroken clouds.12 mph40%29.72 "Hg10 mi
3:51 PM96 °FBroken clouds.8 mph32%29.72 "Hg10 mi
2:51 PM97 °FScattered clouds.9 mph33%29.72 "Hg10 mi
1:51 PM97 °FScattered clouds.N/A33%29.74 "Hg10 mi
12:51 PM95 °FBroken clouds.3 mph35%29.78 "Hg10 mi
11:51 AM94 °FBroken clouds.6 mph36%29.80 "Hg10 mi
10:51 AM93 °FBroken clouds.7 mph37%29.81 "Hg10 mi
Weather by CustomWeather, © 2014

See weather overviewHow to use our weather pages